Flag for U.S.A. Weather past 2 weeks in Terre Haute, Indiana, U.S.A.

Now
72 °F

Fog.


Feels Like: 67 °F
Forecast: 73 / 89 °F
Wind: 3 mph from East

Location: Terre Haute International Airport - Hulman Field

Current Time: Aug 23, 2014 at 5:28:24 AM

Latest Report: Aug 23, 2014 at 5:01 AM


Visibility: 0 mi

Pressure: 29.96 "Hg

Humidity: 97%

Dew point: 71 °F

Location of Terre HauteLocation

Historic Weather in Terre Haute — Graph

°F

Terre Haute temperature yesterday

Maximum temperature yesterday: 84 °F (at 3:53 PM)
Minimum temperature yesterday: 73 °F (at 11:57 PM)
Average temperature yesterday: 79 °F

Past Weeks' High & Low Weather Summary

 TemperatureHumidityPressure
High88 °F (Aug 21, 4:53 PM)97% (Aug 18, 5:53 AM)30.10 "Hg (Aug 18, 5:53 AM)
Low49 °F (Aug 15, 5:53 AM)37% (Aug 15, 12:53 PM)29.76 "Hg (Aug 19, 3:53 PM)
Average72 °F81%29.94 "Hg
* Reported Aug 8 4:53 AM — Aug 23 4:04 AM, Terre Haute, Weather by CustomWeather, © 2014

Note: Actual official high and low records may vary slightly from our data, if they occured in-between our weather recording intervals... More about our weather records

Advertising

Terre Haute weather history for previous 24 hours

 ConditionsComfort  
Time TempWeatherWind HumidityBarometerVisibility
4:04 AM
Aug 23
71 °FFog.No wind96%29.97 "Hg0 mi
3:53 AM71 °FFog.No wind96%29.95 "Hg0 mi
2:53 AM72 °FPassing clouds.3 mph97%29.96 "Hg7 mi
1:53 AM73 °FPassing clouds.No wind97%29.97 "Hg7 mi
1:00 AM73 °FFog.No wind94%29.99 "Hg1 mi
12:04 AM72 °FClear.5 mph97%30.00 "Hg7 mi
11:57 PM
Aug 22
73 °FFog.3 mph94%29.99 "Hg2 mi
10:53 PM75 °FClear.No wind94%29.98 "Hg7 mi
9:53 PM78 °FPassing clouds.No wind90%29.96 "Hg9 mi
8:53 PM78 °FPartly sunny.No wind90%29.95 "Hg10 mi
7:53 PM83 °FBroken clouds.No wind77%29.95 "Hg10 mi
6:53 PM84 °FPartly sunny.6 mph72%29.95 "Hg10 mi
5:53 PM83 °FScattered clouds.3 mph72%29.95 "Hg10 mi
4:53 PM84 °FMore clouds than sun.6 mph72%29.96 "Hg10 mi
3:53 PM84 °FPartly sunny.3 mph72%29.96 "Hg10 mi
2:53 PM83 °FPartly sunny.6 mph74%29.96 "Hg10 mi
1:53 PM82 °FSunny.7 mph77%29.97 "Hg10 mi
12:53 PM81 °FSunny.6 mph77%29.97 "Hg10 mi
11:53 AM81 °FSunny.No wind77%29.98 "Hg10 mi
10:53 AM79 °FPassing clouds.No wind82%30.00 "Hg10 mi
10:04 AM77 °FScattered clouds.5 mph88%30.01 "Hg10 mi
9:53 AM77 °FPartly sunny.5 mph85%29.99 "Hg10 mi
8:53 AM76 °FBroken clouds.5 mph88%29.98 "Hg10 mi
7:53 AM76 °FPassing clouds.8 mph88%29.96 "Hg10 mi
6:53 AM76 °FClear.6 mph88%29.93 "Hg10 mi
5:53 AM76 °FClear.8 mph88%29.92 "Hg10 mi
Weather by CustomWeather, © 2014

See weather overviewHow to use our weather pages